Weather History for Litchfield, MN

Change the Weather History Date:

Monday, March 31, 2014

  Actual Average Record
Temperature  
Mean Temperature 44 °F -  
Max Temperature 55 °F 50 °F 77 °F (1968)
Min Temperature 33 °F 28 °F -2 °F (1969)
Degree Days  
Heating Degree Days 21    
Moisture  
Dew Point 41 °F    
Average Humidity 86    
Maximum Humidity 100    
Minimum Humidity 72    
Precipitation  
Precipitation 0.00 in - - ()
Sea Level Pressure  
Sea Level Pressure 29.50 in    
Wind  
Wind Speed 8 mph (East)    
Max Wind Speed 21 mph    
Max Gust Speed 24 mph    
Visibility 9 miles    
Events Thunderstorm    
Averages and records for this station are not official NWS values.
T = Trace of Precipitation, MM = Missing Value Source: NWS Daily Summary

Daily Weather History Graph

Daily Weather History Graph

Search for Another Location

Airport:

Trip Planner

Search our weather history database for the weather conditions in past years. The results will help you decide how hot, cold, wet, or windy it might be!

Date:

Astronomy

Mar. 31, 2014 Rise Set
Actual Time 7:00 AM CDT 7:44 PM CDT
Civil Twilight 6:30 AM CDT 8:14 PM CDT
Nautical Twilight 5:55 AM CDT 8:49 PM CDT
Astronomical Twilight 5:18 AM CDT 9:26 PM CDT
Moon 7:21 AM CDT 9:08 PM CDT
Length of Visible Light 13h 43m
Length of Day
12h 44m
New Moon, 1% of the Moon is Illuminated
Mar 31
New Moon
Apr 7
First Quarter
Apr 15
Full
Apr 22
Last Quarter
Apr 29
New

Hourly Weather History & Observations

Time (CDT) Temp. Windchill Dew Point Humidity Pressure Visibility Wind Dir Wind Speed Gust Speed Precip Events Conditions
12:13 AM 42.8 °F 38.0 °F 39.2 °F 87% 29.72 in 7.0 mi ENE 8.1 mph - N/A   Clear
12:33 AM 42.8 °F 38.0 °F 39.2 °F 87% 29.71 in 7.0 mi East 8.1 mph - N/A   Clear
12:53 AM 42.8 °F 39.3 °F 39.2 °F 87% 29.71 in 7.0 mi ENE 5.8 mph - N/A   Clear
1:13 AM 42.8 °F 38.6 °F 39.2 °F 87% 29.71 in 7.0 mi East 6.9 mph - N/A   Clear
1:32 AM 42.8 °F 38.6 °F 39.2 °F 87% 29.70 in 7.0 mi East 6.9 mph - N/A   Clear
1:53 AM 42.8 °F 38.6 °F 39.2 °F 87% 29.70 in 7.0 mi East 6.9 mph - N/A   Clear
2:13 AM 41.0 °F 37.1 °F 39.2 °F 93% 29.68 in 7.0 mi East 5.8 mph - N/A   Clear
2:32 AM 42.8 °F 39.3 °F 37.4 °F 81% 29.68 in 7.0 mi East 5.8 mph - N/A   Clear
2:53 AM 42.8 °F 38.0 °F 37.4 °F 81% 29.67 in 10.0 mi East 8.1 mph - N/A   Clear
3:13 AM 42.8 °F 38.0 °F 37.4 °F 81% 29.66 in 10.0 mi East 8.1 mph - N/A   Clear
3:32 AM 42.8 °F 38.6 °F 37.4 °F 81% 29.65 in 10.0 mi East 6.9 mph - N/A   Clear
3:53 AM 41.0 °F 37.1 °F 37.4 °F 87% 29.65 in 10.0 mi East 5.8 mph - N/A   Clear
4:13 AM 41.0 °F 37.1 °F 37.4 °F 87% 29.64 in 10.0 mi East 5.8 mph - N/A   Clear
4:32 AM 41.0 °F 38.0 °F 37.4 °F 87% 29.64 in 10.0 mi East 4.6 mph - N/A   Clear
4:53 AM 41.0 °F 37.1 °F 37.4 °F 87% 29.63 in 10.0 mi East 5.8 mph - N/A   Clear
5:13 AM 39.2 °F 34.2 °F 37.4 °F 93% 29.62 in 10.0 mi East 6.9 mph - N/A   Clear
5:32 AM 41.0 °F 36.4 °F 37.4 °F 87% 29.61 in 10.0 mi East 6.9 mph - N/A   Clear
5:53 AM 41.0 °F 36.4 °F 37.4 °F 87% 29.60 in 10.0 mi East 6.9 mph - N/A   Clear
6:13 AM 41.0 °F 35.8 °F 37.4 °F 87% 29.60 in 10.0 mi ESE 8.1 mph - N/A   Clear
6:32 AM 41.0 °F 35.2 °F 37.4 °F 87% 29.59 in 10.0 mi ESE 9.2 mph - N/A   Clear
6:53 AM 42.8 °F 37.5 °F 37.4 °F 81% 29.59 in 7.0 mi ESE 9.2 mph - N/A   Clear
7:12 AM 41.0 °F 35.8 °F 37.4 °F 87% 29.60 in 7.0 mi ESE 8.1 mph - N/A   Clear
7:33 AM 42.8 °F 38.0 °F 37.4 °F 81% 29.59 in 10.0 mi ESE 8.1 mph - N/A   Scattered Clouds
7:53 AM 42.8 °F 37.5 °F 37.4 °F 81% 29.59 in 10.0 mi ESE 9.2 mph - N/A   Mostly Cloudy
8:12 AM 42.8 °F 38.0 °F 37.4 °F 81% 29.60 in 10.0 mi SE 8.1 mph - N/A   Overcast
8:33 AM 42.8 °F 37.5 °F 39.2 °F 87% 29.59 in 10.0 mi East 9.2 mph - N/A   Drizzle
8:53 AM 42.8 °F 37.5 °F 39.2 °F 87% 29.58 in 7.0 mi ESE 9.2 mph - N/A   Light Drizzle
9:12 AM 42.8 °F 36.2 °F 39.2 °F 87% 29.54 in 10.0 mi East 12.7 mph - N/A   Mostly Cloudy
9:33 AM 44.6 °F 39.7 °F 39.2 °F 81% 29.55 in 10.0 mi East 9.2 mph - N/A   Clear
9:53 AM 44.6 °F 39.7 °F 41.0 °F 87% 29.56 in 10.0 mi East 9.2 mph - N/A   Mostly Cloudy
10:12 AM 44.6 °F 40.7 °F 42.8 °F 93% 29.57 in 10.0 mi East 6.9 mph - N/A   Light Drizzle
10:33 AM 46.4 °F 42.9 °F 44.6 °F 93% 29.56 in 10.0 mi East 6.9 mph - N/A   Mostly Cloudy
10:52 AM 48.2 °F - 44.6 °F 87% 29.54 in 10.0 mi East 10.4 mph - N/A   Overcast
11:13 AM 48.2 °F - 46.4 °F 93% 29.53 in 10.0 mi East 10.4 mph - N/A   Overcast
11:33 AM 50.0 °F - 46.4 °F 87% 29.53 in 10.0 mi East 11.5 mph - N/A   Mostly Cloudy
11:52 AM 48.2 °F - 46.4 °F 93% 29.53 in 10.0 mi ESE 12.7 mph - N/A   Overcast
12:13 PM 51.8 °F - 46.4 °F 82% 29.51 in 10.0 mi ESE 15.0 mph - N/A   Mostly Cloudy
12:33 PM 51.8 °F - 46.4 °F 82% 29.49 in 10.0 mi ESE 16.1 mph - N/A   Overcast
12:52 PM 51.8 °F - 46.4 °F 82% 29.48 in 10.0 mi ESE 16.1 mph 23.0 mph N/A   Mostly Cloudy
1:13 PM 53.6 °F - 46.4 °F 77% 29.47 in 10.0 mi ESE 17.3 mph 23.0 mph N/A Thunderstorm Scattered Clouds
1:32 PM 51.8 °F - 46.4 °F 82% 29.46 in 10.0 mi ESE 18.4 mph - N/A   Scattered Clouds
1:53 PM 55.4 °F - 46.4 °F 72% 29.45 in 10.0 mi ESE 20.7 mph - N/A   Mostly Cloudy
2:13 PM 53.6 °F - 46.4 °F 77% 29.45 in 10.0 mi ESE 17.3 mph 24.2 mph N/A   Overcast
2:32 PM 53.6 °F - 46.4 °F 77% 29.43 in 10.0 mi ESE 11.5 mph - N/A   Overcast
2:53 PM 53.6 °F - 48.2 °F 82% 29.41 in 10.0 mi East 11.5 mph - N/A   Overcast
3:13 PM 51.8 °F - 48.2 °F 88% 29.40 in 10.0 mi East 11.5 mph - N/A   Overcast
3:32 PM 53.6 °F - 48.2 °F 82% 29.39 in 10.0 mi East 12.7 mph - N/A   Overcast
3:53 PM 51.8 °F - 48.2 °F 88% 29.38 in 10.0 mi East 13.8 mph - N/A   Overcast
4:13 PM 53.6 °F - 48.2 °F 82% 29.36 in 10.0 mi East 13.8 mph 18.4 mph N/A   Overcast
4:32 PM 53.6 °F - 48.2 °F 82% 29.34 in 10.0 mi East 15.0 mph - N/A Thunderstorm Overcast
4:53 PM 53.6 °F - 48.2 °F 82% 29.33 in 10.0 mi East 15.0 mph 20.7 mph N/A   Overcast
5:13 PM 51.8 °F - 46.4 °F 82% 29.34 in 10.0 mi East 12.7 mph 18.4 mph N/A Thunderstorm Thunderstorm
5:32 PM 51.8 °F - 46.4 °F 82% 29.32 in 10.0 mi ENE 15.0 mph - N/A   Scattered Clouds
5:53 PM 51.8 °F - 46.4 °F 82% 29.31 in 7.0 mi ENE 11.5 mph - N/A   Mostly Cloudy
6:13 PM 51.8 °F - 46.4 °F 82% 29.32 in 7.0 mi ENE 8.1 mph - N/A Thunderstorm Thunderstorm
6:32 PM 51.8 °F - 46.4 °F 82% 29.31 in 7.0 mi ENE 10.4 mph - N/A Thunderstorm Overcast
6:53 PM 50.0 °F - 46.4 °F 87% 29.33 in 7.0 mi West 3.5 mph - N/A   Overcast
7:13 PM 48.2 °F - 44.6 °F 87% 29.31 in 7.0 mi NE 8.1 mph - N/A   Scattered Clouds
7:32 PM 46.4 °F 44.3 °F 44.6 °F 93% 29.30 in 5.0 mi NNE 4.6 mph - N/A   Clear
7:53 PM 46.4 °F - 44.6 °F 93% 29.31 in 5.0 mi Calm Calm - N/A   Clear
8:13 PM 46.4 °F - 44.6 °F 93% 29.31 in 7.0 mi Calm Calm - N/A   Clear
8:32 PM 46.4 °F 44.3 °F 41.0 °F 81% 29.33 in 10.0 mi South 4.6 mph - N/A   Clear
8:53 PM 42.8 °F 40.1 °F 39.2 °F 87% 29.33 in 10.0 mi SSE 4.6 mph - N/A   Scattered Clouds
9:13 PM 41.0 °F 37.1 °F 37.4 °F 87% 29.34 in 10.0 mi South 5.8 mph - N/A   Mostly Cloudy
9:32 PM 39.2 °F 34.2 °F 35.6 °F 87% 29.35 in 10.0 mi SSE 6.9 mph - N/A   Mostly Cloudy
9:53 PM 37.4 °F 34.9 °F 35.6 °F 93% 29.36 in 10.0 mi SE 3.5 mph - N/A   Overcast
10:12 PM 35.6 °F - 33.8 °F 93% 29.37 in 10.0 mi Calm Calm - N/A   Overcast
10:33 PM 35.6 °F - 33.8 °F 93% 29.37 in 10.0 mi Calm Calm - N/A   Overcast
10:52 PM 35.6 °F 32.8 °F 33.8 °F 93% 29.37 in 10.0 mi SSE 3.5 mph - N/A   Overcast
11:13 PM 35.6 °F - 33.8 °F 93% 29.38 in 10.0 mi Calm Calm - N/A   Overcast
11:33 PM 33.8 °F - 33.8 °F 100% 29.38 in 10.0 mi Calm Calm - N/A   Overcast
11:52 PM 35.6 °F - 33.8 °F 93% 29.39 in 10.0 mi Calm Calm - N/A   Overcast